Regional Weather Roundup
Issued by NWS

Home | Current Version | Previous Version | Graphics & Text | Print | Product List | Glossary On
Versions: 1 2 3 4 5 6 7 8 9 10 11 12 13 14 15 16 17 18 19 20 21 22 23 24 25 26 27 28 29 30 31 32 33 34 35 36 37 38 39 40 41 42 43 44 45 46 47 48 49 50
000
ASUS43 KMKX 171310
RWRWI

WISCONSIN REGIONAL WEATHER ROUNDUP
NATIONAL WEATHER SERVICE MILWAUKEE/SULLIVAN WI
700 AM CST SUN DEC 17 2017

NOTE: "FAIR" INDICATES FEW OR NO CLOUDS BELOW 12,000 FEET WITH NO
SIGNIFICANT WEATHER AND/OR OBSTRUCTIONS TO VISIBILITY.

WIZ001-002-006>008-014>016-023>028-171400-
NORTHWEST WISCONSIN

CITY           SKY/WX    TMP DP  RH WIND       PRES   REMARKS
SUPERIOR ARPT  CLOUDY    21  17  84 CALM      30.13R
ASHLAND        CLOUDY    22  18  85 SW3       30.13S
HAYWARD        CLOUDY    22  20  92 CALM      30.10R FOG
SIREN          CLOUDY    19  18  96 CALM      30.11S FOG
CUMBERLAND     FOG       23  21  93 CALM      30.08S VSB 1
RICE LAKE      CLOUDY    24  23  96 CALM      30.11S FOG
CHETEK         CLOUDY    24  22  96 E5        30.10S WCI  18
LADYSMITH      CLOUDY    24  23  94 E7        30.12R WCI  16
EAU CLAIRE     CLOUDY    25  23  92 E5        30.11R FOG     WCI  19
MENOMONIE      CLOUDY    26  24  95 E6        30.11R FOG     WCI  19
NEW RICHMOND   CLOUDY    24  23  97 E5        30.10R FOG     WCI  18
OSCEOLA        CLOUDY    23  23 100 CALM      30.13S FOG
$$

WIZ003>005-009-010-017-018-171400-
NORTH CENTRAL WISCONSIN

CITY           SKY/WX    TMP DP  RH WIND       PRES   REMARKS
MANITOWISH WTR CLOUDY    20  20 100 SE5       30.08F WCI  13
ARBOR VITAE    CLOUDY    22  20  93 SE5       30.10S FOG     WCI  15
WOODRUFF       CLOUDY    22  20  93 SE5       30.10S FOG     WCI  15
RHINELANDER    CLOUDY    20  19  96 E6        30.11S WCI  12
EAGLE RIVER    CLOUDY    18  18  98 CALM      30.10S FOG
LAND O LAKES   CLOUDY    19  18  94 S5        30.11F FOG     WCI  12
PHILLIPS       CLOUDY    22  22 100 SE3       30.09S
TOMAHAWK       CLOUDY    22  20  94 E3        30.12S
MEDFORD        CLOUDY    22  21  96 E5        30.08S WCI  16
MERRILL        CLOUDY    23  22  95 CALM      30.12S
$$

WIZ029-030-035-036-043>047-171400-
CENTRAL WISCONSIN

CITY           SKY/WX    TMP DP  RH WIND       PRES   REMARKS
WAUSAU         CLOUDY    23  21  92 E5        30.11R WCI  17
MOSINEE        CLOUDY    23  21  93 E6        30.12S WCI  16
MARSHFIELD     CLOUDY    24  21  88 E9        30.09R WCI  14
STEVENS POINT  CLOUDY    22  22  98 E6        30.13S WCI  15
WAUPACA        CLOUDY    27  23  86 NE6       30.14S WCI  20
WAUTOMA        CLOUDY    25  22  88 NE7       30.12F WCI  17
WISC RAPIDS    CLOUDY    25  21  85 E6        30.13R WCI  18
CAMP DOUGLAS   CLOUDY   N/A N/A N/A E5        30.11S
$$

WIZ011>013-019>022-031-037>040-048>050-171400-
NORTHEAST WISCONSIN

CITY           SKY/WX    TMP DP  RH WIND       PRES   REMARKS
ANTIGO         CLOUDY    20  19  96 E9        30.11S WCI  10
SHAWANO        CLOUDY    23  20  87 NE3       30.16S
OCONTO         CLOUDY    21  18  88 N3        30.17F
STURGEON BAY   CLOUDY    28  24  85 E6        30.18S WCI  22
GREEN BAY      CLOUDY    29  24  82 NE7       30.16S WCI  22
MANITOWOC      CLOUDY    31  28  89 E9        30.15F WCI  23
APPLETON       CLOUDY    27  21  80 NE7       30.12S WCI  19
CLINTONVILLE   NOT AVBL
OSHKOSH        CLOUDY    30  27  88 E7        30.12S WCI  23
$$

WIZ032>034-041-042-053>061-171400-
SOUTHWEST WISCONSIN

CITY           SKY/WX    TMP DP  RH WIND       PRES   REMARKS
LA CROSSE      CLOUDY    30  26  85 E3        30.10R
SPARTA         CLOUDY    27  25  95 E6        30.11S WCI  20
VIROQUA        CLOUDY    27  27 100 CALM      30.05S
BOSCOBEL       CLOUDY    32  29  88 NE5       30.08F WCI  27
PRAIRIE DU CHI CLOUDY    31  27  84 NE6       30.06F WCI  25
PLATTEVILLE    CLOUDY    32  32 100 NE8G16    30.05R WCI  25
$$

WIZ056-057-062-063-064-067-068-171400-
SOUTH CENTRAL WISCONSIN

CITY           SKY/WX    TMP DP  RH WIND       PRES   REMARKS
REEDSBURG      CLOUDY    27  27 100 NE6       30.08F FOG     WCI  20
BARABOO/DELLS  CLOUDY    27  26  95 NE6       30.08F FOG     WCI  20
LONE ROCK      CLOUDY    31  30  96 E9        30.08F FOG     WCI  23
MINERAL POINT  CLOUDY    32  32 100 E6        30.04S FOG     WCI  26
MADISON        CLOUDY    31  29  92 E9        30.08F WCI  23
MIDDLETON      CLOUDY    33  31  93 E7        30.07F WCI  26
WATERTOWN      CLOUDY    32  32 100 NE6       30.08F WCI  26
MONROE         CLOUDY    32  32 100 NE10      30.05R FOG     WCI  24
JANESVILLE     CLOUDY    34  34 100 E8        30.07F WCI  27
$$

WIZ051-052-058>065-066-070>072-171400-
SOUTHEAST WISCONSIN

CITY           SKY/WX    TMP DP  RH WIND       PRES   REMARKS
MILWAUKEE      CLOUDY    34  31  88 E10       30.09F WCI  26
WAUKESHA       CLOUDY    30  28  93 E9        30.09F FOG     WCI  22
MILWAUKEE/TIMM CLOUDY    32  28  86 E6        30.10F WCI  26
RACINE         CLOUDY    34  31  88 E8        30.10F FOG     WCI  27
BURLINGTON     CLOUDY    50  50 100 E9        30.09S
KENOSHA        CLOUDY    35  31  85 E10       30.08F FOG     WCI  27
FOND DU LAC    CLOUDY    31  26  82 E7        30.11F WCI  24
SHEBOYGAN      CLOUDY    30  28  92 E6        30.13S WCI  24
WEST BEND      CLOUDY    30  30 100 E10       30.10F WCI  21
JUNEAU         CLOUDY    30  28  92 E9        30.10F WCI  22
$$

LSZ147-162-171400-
LAKE SUPERIOR

STATION/POSITION TIME  TEMP    WIND        PRES    WAVE
                       AIR SEA DIR/SP/G            HT/PER
                 (UTC) (F)     (DEG/KT/KT) (MB)    (FT/S)
DEVILS ISLAND    1300   25     200/ 11/ 13 1021.0R
SAXON HARBOR     1240   24                 1020.0S
$$

LMZ867-665-643>646-171400-
LAKE MICHIGAN

STATION/POSITION TIME  TEMP    WIND        PRES    WAVE
                       AIR SEA DIR/SP/G            HT/PER
                 (UTC) (F)     (DEG/KT/KT) (MB)    (FT/S)
NORTHPORT PIER   1300   29     110/ 15/ 18 1022.0
KEWAUNEE LAKESHO 1242   31     110/  8/ 11 1020.5F
SHEBOYGAN LAKESH 1300   31     100/ 11/ 13 1021.0F
PORT WASHINGTON  1240   33      90/  9/ 15 1021.0F
MILWAUKEE LAKESH 1250   33      70/ 11/ 12   N/A
KENOSHA   LAKESH 1300   34      70/ 11/ 13 1019.0
$$

TC  - TEMPERATURE IN CELSIUS
VSB - VISIBILITY IN STATUTE MILES
WCI - WIND CHILL INDEX
HX  - HEAT INDEX





USA.gov is the U.S. government's official web portal to all federal, state and local government web resources and services.